Regional Weather Roundup
Issued by NWS

Home | Current Version | Previous Version | Text Only | Print | Product List | Glossary Off
Versions: 1 2 3 4 5 6 7 8 9 10 11 12 13 14 15 16 17 18 19 20 21 22 23 24 25 26 27 28 29 30 31 32 33 34 35 36 37 38 39 40 41 42 43 44 45 46 47 48 49 50

000
ASUS43 KIND 110459
RWRIN

WEATHER ROUNDUP FOR INDIANA
NATIONAL WEATHER SERVICE INDIANAPOLIS IN
1200 AM EST THU FEB 11 2016

NOTE: "FAIR" INDICATES FEW OR NO CLOUDS BELOW 12,000 FEET WITH NO
SIGNIFICANT WEATHER AND/OR OBSTRUCTIONS TO VISIBILITY.

* - STATION DOES NOT REPORT WEATHER SUCH AS PRECIPITATION OR FOG.

+ - STATION NOT QUALITY CONTROLLED BY THE NATIONAL WEATHER SERVICE.
    USE DATA WITH CAUTION...ESPECIALLY DEWPOINT AND RELATIVE
    HUMIDITY OBSERVATIONS.

INZ001>003-010>013-019-020-110600-
NORTHWEST INDIANA

CITY           SKY/WX    TMP DP  RH WIND       PRES   REMARKS
GARY /AIRPORT/ CLEAR     15   1  54 W9        30.17S WCI   3
MONTICELLO +   CLEAR     11   2  67 W5        30.15R WCI   3
RENSSELAER +   PTCLDY    14   5  67 NW3       30.16R

$$

LMZ046-743>745-110600-
SOUTHERN LAKE MICHIGAN

STATION/POSITION TIME  TEMP    WIND        PRES    WAVE
                       AIR SEA DIR/SP/G            HT
                 (UTC) (F)     (DEG/KT/KT) (MB)    (FT)
BURNS HARBOR     0402   17     290/ 12/ 18 1021.3R
MICHIGAN CITY    0400   17     280/ 13/ 19   N/A

$$

INZ004-005-014>016-021>024-110600-
NORTH CENTRAL INDIANA

CITY           SKY/WX    TMP DP  RH WIND       PRES   REMARKS
GOSHEN         CLOUDY    14   9  80 W9        30.09S WCI   2
SOUTH BEND     LGT SNOW  12  10  92 SW6       30.11S FOG     WCI   3

$$

INZ006>009-017-018-025>027-110600-
NORTHEAST INDIANA

CITY           SKY/WX    TMP DP  RH WIND       PRES   REMARKS
ANGOLA *+      CLOUDY    12   9  85 W3        30.05R
FORT WAYNE     MOCLDY    14   5  67 W12       30.10R WCI   0

$$

INZ028-029-035-036-043>045-051>053-110600-
WEST CENTRAL INDIANA

CITY           SKY/WX    TMP DP  RH WIND       PRES   REMARKS
GREENCASTLE +  CLEAR     12   3  67 CALM      30.15R
LAFAYETTE      CLEAR      8   4  83 CALM      30.16R
TERRE HAUTE    CLEAR     15   7  70 NW3       30.18R

$$

INZ030>032-037>040-046>048-054>057-064-065-110600-
CENTRAL INDIANA

CITY           SKY/WX    TMP DP  RH WIND       PRES   REMARKS
FRANKFORT +    CLEAR      6  -2  68 W5        30.15S WCI  -3
GREENWOOD *+   MOCLDY    14   9  79 NW3       30.15R
INDIANAPOLIS   MOCLDY    13   5  70 W5        30.14R WCI   5
-EAGLE CREEK   CLOUDY    15   7  70 W7        30.14R WCI   5
KOKOMO *+      CLOUDY    16   5  62 NW7       30.13R WCI   6
MT COMFORT *+  MOCLDY    12   7  79 W7        30.14R WCI   2
SHELBYVILLE    CLOUDY    14   6  70 W3        30.14R

$$

INZ033-034-041-042-049-050-058-059-110600-
EAST CENTRAL INDIANA

CITY           SKY/WX    TMP DP  RH WIND       PRES   REMARKS
MUNCIE         LGT SNOW  15   7  70 CALM      30.12R

$$

INZ060-061-067>069-081>083-085>088-110600-
SOUTHWEST INDIANA

CITY           SKY/WX    TMP DP  RH WIND       PRES   REMARKS
EVANSVILLE     CLOUDY    24  16  71 CALM      30.21R
HUNTINGBURG *+ CLOUDY    21  16  79 SW3       30.19S

$$

INZ062-063-066-070>080-084-089>092-110600-
SOUTH CENTRAL AND SOUTHEAST INDIANA

CITY           SKY/WX    TMP DP  RH WIND       PRES   REMARKS
BLOOMINGTON    CLEAR     12   5  73 CALM      30.15R
MADISON *+     MOCLDY    14  10  85 CALM      30.17S
SEYMOUR +      CLEAR     18   9  68 CALM      30.17R

$$




USA.gov is the U.S. government's official web portal to all federal, state and local government web resources and services.